Location: Mainz-Finthen
(49.9906°N, 8.1713°E)
Time: 22:08:35
(UTC+00:00)

BEESAT - Visible Passes

Search period start: 05 December 2021 00:00
Search period end: 15 December 2021 00:00
Orbit: 700 x 707 km, 98.6° (Epoch: 05 December)

Date Brightness Start Highest point End Pass type
(mag) Time Alt. Az. Time Alt. Az. Time Alt. Az.
05 Dec ? 05:34:56 10° SE 05:39:28 46° ENE 05:44:03 10° N visible
06 Dec ? 04:42:13 10° E 04:45:24 18° ENE 04:48:34 10° NNE visible
06 Dec ? 06:17:48 10° S 06:22:34 77° WSW 06:27:23 10° NNW visible
07 Dec ? 05:23:48 10° SE 05:28:10 37° ENE 05:32:34 10° N visible
08 Dec ? 04:31:33 10° E 04:34:10 15° NE 04:36:48 10° NNE visible
08 Dec ? 06:06:25 10° SSE 06:11:11 85° ENE 06:16:00 10° NNW visible
09 Dec ? 05:12:44 10° ESE 05:16:52 30° ENE 05:21:01 10° N visible
10 Dec ? 04:21:07 10° ENE 04:22:58 12° NE 04:24:49 10° NNE visible
10 Dec ? 05:55:06 10° SSE 05:59:50 67° ENE 06:04:36 10° N visible
11 Dec ? 05:01:45 10° ESE 05:05:35 25° ENE 05:09:28 10° N visible
12 Dec ? 05:43:51 10° SE 05:48:29 53° ENE 05:53:10 10° N visible
13 Dec ? 04:50:52 10° ESE 04:54:20 20° ENE 04:57:50 10° NNE visible
13 Dec ? 06:26:53 10° S 06:31:37 66° WSW 06:36:24 10° NNW visible
14 Dec ? 05:32:40 10° SE 05:37:09 43° ENE 05:41:41 10° N visible
